[[{"header":{"parameterUnit":"m.s-1","parameterCategory":1,"la1":30.2991,"la2":30.254,"lo1":-89.0895,"lo2":-89.0444,"dy":0.0017,"dx":0.0017,"nx":28,"ny":28,"refTime":"2025-04-12T21:00:00:Z","depth":0,"parameterNumber":2,"parameterNumberName":"U-component_of_WINDS"},"data":[0,0,0,0,0,0,0,0,0,0,0,0,0,0,0,0,0,0,0,0,0,0,0,0,0,0,0,0,0,0,0,0,0,0,0,0,0,0,0,0,0,0,0,0,0,0,0,0,0,0,0,0,0,0,0,0,0,0,-1.8899,-1.8899,0,-1.8921,-1.8922,-1.8922,-1.8925,-1.8924,-1.8924,-1.8924,-1.8947,-1.8948,-1.8949,0,0,0,0,0,0,0,0,0,0,0,0,0,-1.8861,-1.8862,-1.8899,-1.8899,-1.89,-1.8921,-1.8922,-1.8922,-1.8925,-1.8924,-1.8924,-1.8924,-1.8947,-1.8948,-1.8949,0,0,0,0,0,0,0,0,0,0,0,0,0,-1.888,-1.8862,-1.8899,-1.8904,-1.8904,-1.8921,-1.8922,-1.8922,-1.8925,-1.8924,-1.8924,-1.8924,-1.8947,-1.8948,-1.8949,-1.8963,0,0,-1.8953,-1.8953,0,0,0,0,0,0,0,0,-1.8879,-1.8881,-1.8903,-1.8903,-1.8904,-1.892,-1.8917,-1.8936,-1.8925,-1.8917,-1.8924,-1.8924,-1.8938,-1.894,-1.8945,-1.8964,-1.8965,-1.8953,-1.8954,-1.8954,-1.8955,0,0,0,0,0,0,0,-1.8877,-1.888,-1.8908,-1.8903,-1.8904,-1.8905,-1.8907,-1.892,-1.8929,-1.8918,-1.8918,-1.892,-1.8939,-1.8944,-1.8946,-1.8966,-1.8953,-1.8954,-1.8955,-1.8955,-1.8999,-1.9,0,0,0,0,0,0,-1.8875,-1.8879,-1.8907,-1.8908,-1.889,-1.8906,-1.8909,-1.8915,-1.8929,-1.8931,-1.8921,-1.892,-1.8942,-1.8944,-1.8947,-1.8965,-1.8954,-1.8955,-1.8956,-1.8999,-1.8999,-1.9,0,0,0,0,0,0,-1.8874,-1.8877,-1.8906,-1.8894,-1.8898,-1.8907,-1.8914,-1.8916,-1.8921,-1.8931,-1.8933,-1.8924,-1.8942,-1.8945,-1.8959,-1.8965,-1.8956,-1.8957,-1.8998,-1.8999,-1.9,-1.9,0,0,0,0,0,0,-1.8873,-1.8877,-1.8882,-1.8894,-1.8898,-1.8918,-1.8915,-1.8916,-1.8923,-1.8923,-1.8935,-1.8937,-1.8942,-1.8958,-1.8961,-1.8967,-1.8958,-1.8998,-1.8999,-1.8999,-1.9,-1.9001,-1.9002,0,0,0,0,0,-1.8872,-1.8881,-1.8882,-1.8886,-1.8904,-1.8918,-1.8921,-1.8926,-1.8923,-1.8929,-1.8936,-1.8937,-1.8965,-1.8959,-1.8963,-1.8969,-1.8997,-1.8998,-1.8999,-1.8999,-1.9001,-1.9002,0,0,0,0,0,0,-1.8869,-1.8883,-1.8884,-1.8897,-1.8907,-1.8919,-1.8925,-1.8927,-1.8937,-1.8937,-1.8943,-1.8946,-1.8961,-1.8967,-1.896,-1.8985,-1.8981,-1.8983,-1.898,-1.8981,-1.8982,-1.898,-1.8959,0,0,0,0,0,-1.887,-1.888,-1.8892,-1.8902,-1.8907,-1.8916,-1.8922,-1.8925,-1.8935,-1.8939,-1.8947,-1.8957,-1.8968,-1.8975,-1.8986,-1.9001,-1.9004,-1.9008,-1.9009,-1.901,-1.9011,-1.902,-1.9022,-1.9003,-1.9003,-1.9003,0,0,-1.8873,-1.8881,-1.8887,-1.8902,-1.891,-1.892,-1.8919,-1.8929,-1.8937,-1.8941,-1.8955,-1.8961,-1.8973,-1.8988,-1.8995,-1.8994,-1.9017,-1.9011,-1.9012,-1.9012,-1.9022,-1.9023,-1.9025,-1.9004,-1.9003,-1.9003,0,0,-1.8882,-1.8889,-1.8899,-1.8907,-1.8919,-1.8925,-1.8927,-1.894,-1.8944,-1.8958,-1.8961,-1.8972,-1.899,-1.8999,-1.9006,-1.9021,-1.9022,-1.9024,-1.9029,-1.9038,-1.904,-1.9041,-1.9046,-1.9048,-1.9025,-1.9025,-1.9025,0,-1.8883,-1.8898,-1.8904,-1.8915,-1.8922,-1.8927,-1.8937,-1.8945,-1.896,-1.8965,-1.8963,-1.8988,-1.8996,-1.9013,-1.9017,-1.9023,-1.9026,-1.9022,-1.9039,-1.904,-1.9042,-1.9047,-1.9049,-1.9026,-1.9026,-1.9026,-1.9026,0,-1.8899,-1.891,-1.8917,-1.8931,-1.8939,-1.895,-1.8959,-1.8967,-1.897,-1.8977,-1.8992,-1.9002,-1.9016,-1.902,-1.9024,-1.9039,-1.9038,-1.9038,-1.9034,-1.9044,-1.9049,-1.9051,-1.9026,-1.9026,-1.9026,-1.9026,0,0,-1.8905,-1.8924,-1.8927,-1.8934,-1.8948,-1.8957,-1.8969,-1.8982,-1.8988,-1.8999,-1.9009,-1.9027,-1.9027,-1.9035,-1.9039,-1.9048,-1.9059,-1.9046,-1.9047,-1.9048,-1.9077,-1.9076,-1.9079,-1.9061,-1.9061,-1.9062,-1.9076,0,-1.8916,-1.8936,-1.8943,-1.896,-1.8971,-1.8976,-1.8987,-1.8997,-1.9004,-1.9015,-1.9023,-1.9034,-1.9034,-1.9039,-1.9047,-1.9056,-1.9065,-1.9055,-1.9071,-1.9071,-1.9066,-1.9081,-1.908,-1.9093,-1.9078,-1.9078,-1.9079,0,-1.893,-1.8941,-1.896,-1.8974,-1.8978,-1.8987,-1.9001,-1.9011,-1.9023,-1.9028,-1.9038,-1.9042,-1.9056,-1.9052,-1.9072,-1.9065,-1.9072,-1.9078,-1.9078,-1.9079,-1.9074,-1.9082,-1.9098,-1.9099,-1.9082,-1.9082,-1.9081,0,-1.8933,-1.8953,-1.8966,-1.8972,-1.8989,-1.8995,-1.9003,-1.9015,-1.9023,-1.9035,-1.904,-1.9054,-1.9061,-1.9072,-1.9081,-1.9078,-1.91,-1.9097,-1.9104,-1.9104,-1.9107,-1.9107,-1.9124,-1.9114,-1.9113,-1.9113,-1.9113,0,-1.8943,-1.8954,-1.8968,-1.8976,-1.8989,-1.8997,-1.901,-1.9018,-1.9029,-1.904,-1.9046,-1.9056,-1.9067,-1.9079,-1.9086,-1.9101,-1.9104,-1.9109,-1.911,-1.9108,-1.9107,-1.9111,-1.911,-1.9114,-1.9114,-1.9114,-1.9114,0,-1.8948,-1.8957,-1.8972,-1.8987,-1.8991,-1.9,-1.9013,-1.9022,-1.903,-1.9044,-1.9047,-1.906,-1.9074,-1.9085,-1.9103,-1.9108,-1.9124,-1.9126,-1.9119,-1.912,-1.9127,-1.9126,-1.9146,-1.9149,-1.9138,-1.9138,-1.9138,0,-1.8953,-1.8962,-1.8978,-1.8985,-1.8993,-1.9005,-1.9013,-1.9023,-1.9031,-1.9047,-1.9054,-1.9069,-1.9081,-1.9104,-1.9115,-1.913,-1.9132,-1.9138,-1.9134,-1.9131,-1.9131,-1.913,-1.9131,-1.9138,-1.9138,-1.9138,-1.9138,0,-1.8962,-1.8967,-1.8978,-1.8992,-1.9002,-1.9013,-1.9024,-1.903,-1.9042,-1.9052,-1.9066,-1.9076,-1.9095,-1.911,-1.9126,-1.9134,-1.9139,-1.914,-1.9142,-1.9139,-1.9135,-1.9137,-1.912,-1.9139,-1.9139,-1.9139,-1.9139,-1.9139,-1.8967,-1.8975,-1.8988,-1.9001,-1.9011,-1.9022,-1.9031,-1.904,-1.9053,-1.9069,-1.9074,-1.9089,-1.9103,-1.9125,-1.9134,-1.9147,-1.9147,-1.915,-1.9151,-1.9151,-1.9151,-1.9134,-1.915,-1.915,-1.915,-1.915,-1.915,0,-1.8976,-1.8985,-1.8997,-1.9013,-1.9023,-1.9027,-1.904,-1.9049,-1.9062,-1.9074,-1.9086,-1.9104,-1.9119,-1.9132,-1.9148,-1.9155,-1.9158,-1.9159,-1.9158,-1.916,-1.915,-1.9147,-1.9157,-1.9157,-1.9157,-1.9157,-1.9157,-1.9157,-1.8982,-1.8996,-1.9002,-1.9022,-1.9031,-1.9045,-1.9053,-1.9063,-1.9073,-1.9092,-1.9105,-1.9113,-1.9126,-1.9143,-1.9157,-1.9161,-1.9166,-1.9167,-1.9171,-1.9162,-1.9161,-1.916,-1.9156,-1.9168,-1.9168,-1.918,-1.918,-1.918]},{"header":{"parameterUnit":"m.s-1","parameterCategory":1,"la1":30.2991,"la2":30.254,"lo1":-89.0895,"lo2":-89.0444,"dy":0.0017,"dx":0.0017,"nx":28,"ny":28,"refTime":"2025-04-12T21:00:00:Z","depth":0,"parameterNumber":3,"parameterNumberName":"V-component_of_WINDS"},"data":[0,0,0,0,0,0,0,0,0,0,0,0,0,0,0,0,0,0,0,0,0,0,0,0,0,0,0,0,0,0,0,0,0,0,0,0,0,0,0,0,0,0,0,0,0,0,0,0,0,0,0,0,0,0,0,0,0,0,3.667,3.667,0,3.6678,3.6679,3.6679,3.6701,3.6702,3.6702,3.6703,3.6708,3.6707,3.6707,0,0,0,0,0,0,0,0,0,0,0,0,0,3.6672,3.6672,3.667,3.667,3.667,3.6678,3.6679,3.6679,3.6701,3.6702,3.6702,3.6703,3.6708,3.6707,3.6707,0,0,0,0,0,0,0,0,0,0,0,0,0,3.6675,3.6672,3.667,3.6683,3.6684,3.6678,3.6679,3.6679,3.6701,3.6702,3.6702,3.6703,3.6708,3.6707,3.6707,3.6689,0,0,3.6705,3.6705,0,0,0,0,0,0,0,0,3.6674,3.6675,3.6681,3.6682,3.6683,3.669,3.6681,3.6682,3.6701,3.6694,3.6703,3.6704,3.6701,3.6701,3.6701,3.6689,3.6689,3.6705,3.6705,3.6705,3.6705,0,0,0,0,0,0,0,3.6674,3.6674,3.6673,3.6681,3.6682,3.6687,3.6688,3.6681,3.6693,3.6695,3.6697,3.6698,3.6702,3.6701,3.6701,3.6689,3.6705,3.6705,3.6705,3.6704,3.6665,3.6664,0,0,0,0,0,0,3.6673,3.6674,3.6673,3.6674,3.6681,3.6687,3.6688,3.6687,3.6693,3.6695,3.6697,3.6699,3.6702,3.6702,3.6701,3.6682,3.6705,3.6704,3.6704,3.6666,3.6665,3.6664,0,0,0,0,0,0,3.6673,3.6672,3.6673,3.6674,3.6675,3.6686,3.6684,3.6686,3.6686,3.6695,3.6697,3.6694,3.6702,3.6702,3.6692,3.6682,3.6704,3.6704,3.6666,3.6665,3.6664,3.6641,0,0,0,0,0,0,3.6673,3.6672,3.6666,3.6674,3.6675,3.6664,3.6684,3.6686,3.6686,3.6688,3.6693,3.6695,3.6703,3.6693,3.6692,3.6682,3.6703,3.6667,3.6666,3.6665,3.6643,3.664,3.6637,0,0,0,0,0,3.6673,3.6658,3.6665,3.6665,3.6667,3.6664,3.6664,3.6675,3.6685,3.6678,3.6684,3.6694,3.6683,3.6692,3.6691,3.668,3.6668,3.6666,3.6665,3.6645,3.664,3.6637,0,0,0,0,0,0,3.6646,3.6659,3.6668,3.6655,3.6658,3.6667,3.6659,3.667,3.6669,3.6671,3.6683,3.6684,3.6673,3.6676,3.6685,3.6664,3.6678,3.6676,3.6663,3.6659,3.6655,3.6655,3.6703,0,0,0,0,0,3.664,3.6637,3.6648,3.6636,3.6637,3.6648,3.6647,3.6655,3.6658,3.6659,3.6664,3.6666,3.6664,3.6661,3.6659,3.6644,3.6645,3.6636,3.6633,3.663,3.6628,3.6622,3.6618,3.6658,3.6658,3.6658,0,0,3.6625,3.6631,3.6628,3.6631,3.6634,3.663,3.6649,3.6644,3.6641,3.6658,3.665,3.6654,3.6657,3.6645,3.664,3.6647,3.6618,3.6628,3.6626,3.6625,3.6619,3.6616,3.6612,3.6657,3.6657,3.6658,0,0,3.6596,3.6601,3.6592,3.6596,3.6601,3.6609,3.6607,3.6615,3.6618,3.6611,3.6624,3.6621,3.6615,3.6617,3.6618,3.6592,3.6601,3.659,3.6573,3.6567,3.6563,3.6561,3.6552,3.6549,3.6589,3.6588,3.6588,0,3.6577,3.6572,3.6586,3.6581,3.6581,3.6599,3.659,3.6592,3.6596,3.6596,3.6604,3.6599,3.6602,3.6591,3.6585,3.6585,3.6583,3.659,3.6563,3.656,3.6558,3.655,3.6546,3.6587,3.6587,3.6587,3.6588,0,3.6549,3.6545,3.6538,3.6543,3.6543,3.6536,3.6548,3.6546,3.6555,3.6561,3.6554,3.6559,3.6558,3.6556,3.6564,3.6547,3.6551,3.6561,3.6575,3.6553,3.6545,3.6542,3.6585,3.6586,3.6586,3.6586,0,0,3.6502,3.6517,3.6514,3.6517,3.6525,3.6523,3.6517,3.6518,3.6516,3.6519,3.6514,3.651,3.652,3.652,3.6528,3.6522,3.6502,3.6533,3.6533,3.6527,3.6485,3.6478,3.6474,3.6509,3.6509,3.6508,3.6485,0,3.6476,3.6467,3.648,3.6468,3.6466,3.6483,3.6478,3.6482,3.6489,3.6487,3.6494,3.6491,3.6504,3.6504,3.6499,3.6506,3.6494,3.6508,3.6505,3.6504,3.6503,3.647,3.6462,3.6439,3.6482,3.6481,3.6481,0,3.6443,3.6446,3.6435,3.6445,3.6445,3.644,3.6443,3.6441,3.6446,3.6452,3.6453,3.6464,3.6458,3.6472,3.6465,3.6474,3.6473,3.6477,3.6476,3.6476,3.6491,3.6469,3.6433,3.6429,3.6477,3.6477,3.6477,0,3.6412,3.6412,3.6406,3.6408,3.642,3.6416,3.6421,3.6427,3.6428,3.643,3.643,3.6431,3.6432,3.6432,3.6443,3.6452,3.6434,3.6449,3.6438,3.6438,3.6433,3.6434,3.6396,3.6433,3.6433,3.6433,3.6433,0,3.6381,3.6373,3.6392,3.6388,3.6381,3.6395,3.6387,3.6393,3.6399,3.6396,3.6411,3.6408,3.6422,3.642,3.6428,3.6422,3.6421,3.6425,3.6428,3.6424,3.6424,3.6424,3.6426,3.6432,3.6432,3.6432,3.6433,0,3.6344,3.6356,3.6351,3.6363,3.6366,3.636,3.637,3.6367,3.6375,3.6372,3.6372,3.6384,3.6383,3.6394,3.6394,3.64,3.639,3.6394,3.6388,3.639,3.6379,3.638,3.6341,3.6337,3.6375,3.6375,3.6374,0,3.6323,3.6318,3.6331,3.6331,3.6335,3.6334,3.6336,3.635,3.635,3.6357,3.6353,3.6354,3.6355,3.6353,3.6362,3.6362,3.6368,3.6354,3.6368,3.6365,3.6368,3.6368,3.6368,3.6351,3.635,3.635,3.635,0,3.6286,3.6293,3.6294,3.6299,3.63,3.6303,3.6308,3.6307,3.6322,3.6322,3.6322,3.6324,3.6326,3.6326,3.6329,3.6333,3.6344,3.6345,3.6343,3.6339,3.6336,3.6339,3.6381,3.6346,3.6346,3.6347,3.6347,3.6347,3.6257,3.6254,3.6263,3.6264,3.6269,3.6274,3.6272,3.628,3.6281,3.6285,3.6293,3.6292,3.6299,3.6304,3.6307,3.6306,3.6313,3.631,3.6309,3.6308,3.6306,3.6337,3.6307,3.6307,3.6307,3.6307,3.6307,0,3.6221,3.6228,3.6229,3.6236,3.6237,3.6249,3.6255,3.6255,3.6254,3.626,3.6262,3.6262,3.6263,3.6273,3.6275,3.6273,3.6278,3.6273,3.6273,3.6274,3.63,3.6302,3.6269,3.6269,3.6269,3.6269,3.6269,3.6269,3.6202,3.6198,3.6206,3.6205,3.6211,3.6212,3.6214,3.6218,3.6223,3.6224,3.6225,3.6232,3.6239,3.6242,3.6244,3.6247,3.6247,3.624,3.6245,3.6268,3.6272,3.6276,3.6278,3.624,3.624,3.6219,3.6219,3.6219]}]]